Flag for Jordan Weather past 2 weeks in Zarqa, Jordan

Now
77 °F

Scattered clouds.


Feels Like: 78 °F
Forecast: 60 / 84 °F
Wind: 12 mph from Northwest

Location: Amman Airport

Current Time: Sep 21, 2014 at 3:20:52 PM

Latest Report: Sep 21, 2014 at 2:00 PM


Visibility: 4 mi

Pressure: 29.95 "Hg

Humidity: 42%

Dew point: 52 °F

Location of ZarqaLocation

Historic Weather in Zarqa — Graph

°F

Zarqa temperature yesterday

Maximum temperature yesterday: 79 °F (at 2:00 PM)
Minimum temperature yesterday: 64 °F (at 2:00 AM)
Average temperature yesterday: 70 °F

Past Weeks' High & Low Weather Summary

 TemperatureHumidityPressure
High90 °F (Sep 17, 2:00 PM)94% (Sep 20, 6:00 AM)30.09 "Hg (Sep 20, 6:00 AM)
Low64 °F (Sep 11, 6:00 AM)20% (Sep 17, 3:00 PM)29.86 "Hg (Sep 6, 3:00 PM)
Average73 °F56%29.98 "Hg
* Reported Sep 6 2:00 PM — Sep 21 2:00 PM, Zarqa, Weather by CustomWeather, © 2014

Note: Actual official high and low records may vary slightly from our data, if they occured in-between our weather recording intervals... More about our weather records

Advertising

Zarqa weather history for previous 24 hours

 ConditionsComfort  
Time TempWeatherWind HumidityBarometerVisibility
2:00 PM
Sep 21
77 °FScattered clouds.12 mph42%29.95 "Hg4 mi
1:00 PM75 °FScattered clouds.12 mph47%29.98 "Hg4 mi
12:00 PM73 °FScattered clouds.14 mph50%29.98 "Hg4 mi
11:00 AM73 °FScattered clouds.10 mph47%30.01 "Hg3 mi
10:00 AM72 °FScattered clouds.10 mph53%30.01 "Hg3 mi
9:00 AM70 °FScattered clouds.12 mph60%29.98 "Hg3 mi
8:00 AM66 °FScattered clouds.9 mph73%29.98 "Hg3 mi
7:00 AM64 °FPassing clouds.No wind78%29.98 "Hg3 mi
6:00 AM64 °FPassing clouds.9 mph78%29.95 "Hg3 mi
5:00 AM64 °FHaze.No wind78%29.95 "Hg3 mi
4:00 AM64 °FHaze.5 mph78%29.95 "Hg3 mi
3:00 AM64 °FHaze.7 mph78%29.95 "Hg3 mi
2:00 AM64 °FHaze.12 mph73%29.98 "Hg3 mi
1:00 AM66 °FHaze.5 mph68%29.98 "Hg3 mi
12:00 AM68 °FHaze.7 mph64%29.98 "Hg3 mi
11:00 PM
Sep 20
68 °FHaze.9 mph69%29.98 "Hg3 mi
9:00 PM70 °FClear.12 mph73%29.98 "Hg4 mi
8:00 PM70 °FPassing clouds.13 mph69%29.98 "Hg4 mi
4:00 PM79 °FScattered clouds.12 mph42%29.98 "Hg4 mi
3:00 PM79 °FScattered clouds.12 mph42%29.98 "Hg4 mi
Weather by CustomWeather, © 2014

See weather overviewHow to use our weather pages